Theta_e
310 309 310 309 310 310 314 314 318 323 321 320 320 319 320 321 321 323 326 326 328 326 325 324 323 322 321 320 319 317 316 315 314 313 313 312 311 310 308 307 307 308 308 308
309 309 308 307 308 309 311 312 316 318 321 321 320 320 320 320 321 323 327 327 327 326 325 324 322 321 319 316 315 315 315 314 312 311 311 309 308 307 306 304 304 304 302 302
308 307 305 305 307 308 309 311 312 314 316 315 317 320 320 320 322 325 326 327 326 325 323 322 320 319 317 314 314 313 313 311 310 308 307 306 305 304 302 301 301 300 301 302
304 304 301 304 305 306 305 306 309 311 312 314 316 318 320 320 323 322 324 325 323 323 322 319 316 315 314 313 312 311 310 309 306 305 304 303 302 301 300 300 301 301 301 300
303 303 304 304 304 303 304 307 307 313 313 311 315 318 320 320 322 321 324 323 323 320 317 316 315 313 313 311 310 309 308 306 304 302 302 302 300 300 299 300 300 300 300 300
299 296 303 303 304 305 305 305 311 310 309 308 312 315 316 315 323 322 323 322 317 316 315 314 313 313 312 309 308 306 305 303 302 300 300 299 299 299 298 298 298 299 298 298
304 304 305 304 304 304 306 306 307 307 308 310 310 311 314 322 322 322 320 320 320 316 313 312 311 311 307 304 304 303 302 300 299 299 298 298 298 298 298 298 297 297 296 296
301 302 302 303 304 305 306 304 304 304 306 308 308 308 310 318 317 316 315 315 314 313 310 310 309 305 303 303 302 300 298 298 298 297 297 296 296 296 295 294 294 293 293 293
303 302 303 303 303 302 302 302 304 305 304 305 305 305 310 315 312 311 309 310 311 311 308 305 303 301 300 298 298 297 297 297 296 295 294 293 292 292 292 292 292 291 290 290
303 302 302 302 303 303 303 304 302 303 304 305 304 305 311 312 308 307 309 308 306 305 304 300 299 299 298 297 296 296 295 294 293 292 292 291 291 290 290 290 290 289 290 290
301 301 301 302 301 301 301 302 302 303 304 304 305 305 307 309 306 306 306 307 306 301 298 296 295 295 295 295 294 294 293 292 292 291 290 289 289 288 288 288 288 288 288 289
302 301 301 301 301 301 302 302 303 304 304 304 306 310 308 304 304 306 305 303 303 299 297 295 294 293 292 292 292 292 291 291 290 289 287 287 286 287 288 287 287 287 288 288
300 300 301 302 302 302 302 302 302 303 303 306 306 305 302 302 301 301 299 299 297 295 294 292 292 291 291 291 291 290 290 289 287 286 286 286 286 286 285 285 285 285 285 285
300 301 301 301 302 302 301 303 303 303 304 306 303 299 303 301 299 297 295 294 294 294 293 292 290 289 288 288 288 287 287 285 285 285 285 284 283 283 282 283 283 283 283 283
300 302 302 302 302 301 302 302 304 303 308 306 303 299 300 299 296 293 292 294 294 293 290 288 286 285 286 287 286 286 285 284 283 283 281 281 281 281 281 281 281 281 281 281
301 301 301 302 302 302 303 303 303 302 298 297 298 298 296 294 293 292 292 292 291 288 284 284 283 284 285 285 284 283 283 282 281 281 281 280 280 280 280 279 279 279 279 278
302 302 302 301 302 303 302 302 302 298 296 295 294 295 294 293 292 291 288 286 285 283 283 283 282 283 283 283 282 281 281 281 281 280 280 280 279 279 278 278 277 277 277 277
301 301 301 301 301 301 298 296 297 295 293 291 293 294 293 293 290 286 283 282 282 282 282 281 281 282 282 281 281 281 281 280 280 280 279 279 278 277 276 276 276 275 275 275
300 296 296 298 296 295 295 294 293 293 292 293 294 293 291 287 284 282 282 282 282 281 281 281 281 281 281 281 281 281 280 280 280 279 278 277 277 276 275 275 274 274 274 274
297 296 296 295 295 295 293 294 294 292 292 294 292 288 285 284 283 282 281 281 281 281 281 281 281 281 281 281 281 281 280 279 278 277 277 276 276 275 275 274 274 274 274 274
292 292 293 292 291 292 292 292 292 291 290 289 288 285 283 282 281 281 281 280 279 280 281 281 281 281 281 280 280 280 279 278 278 277 276 276 276 275 274 274 274 274 274 274
291 291 292 292 292 290 291 291 291 289 287 285 283 283 282 282 281 281 280 280 280 280 281 281 281 280 280 280 279 279 278 278 277 276 276 276 275 274 274 274 274 274 274 274
292 293 293 293 293 291 289 288 287 285 284 284 284 283 282 281 281 281 280 279 280 280 281 281 280 280 280 279 279 278 278 277 276 276 275 275 274 274 274 274 273 273 273 273
293 293 292 291 290 290 287 284 283 283 283 283 282 282 282 281 280 280 280 280 280 281 281 280 280 279 279 279 279 278 277 277 276 275 275 275 274 273 273 272 272 271 271 271
292 290 289 288 287 284 283 284 284 284 283 283 283 282 280 280 281 279 280 280 280 280 280 279 279 279 279 278 277 277 277 276 275 275 275 274 273 272 272 271 271 271 271 271
289 288 288 287 285 284 284 284 283 283 283 282 281 280 280 280 280 280 280 280 280 279 279 279 279 279 278 278 277 277 276 276 275 274 273 273 272 272 271 271 271 271 271 270
288 288 287 285 284 284 283 283 283 283 282 282 280 279 280 280 280 280 280 279 279 279 279 279 278 278 277 277 277 276 275 274 274 273 273 273 272 272 271 271 271 271 270 270
Wind_Speed
14 11 9 17 23 25 14 13 7 17 19 31 28 21 25 38 21 15 23 33 23 21 25 25 22 19 19 17 12 10 10 10 10 8 8 9 11 12 11 14 13 14 16 17
16 8 12 21 19 16 17 19 18 20 21 21 33 32 31 32 29 22 25 33 36 39 35 29 23 21 17 15 12 7 8 10 8 7 9 9 11 11 13 13 14 15 15 15
10 4 12 13 11 11 18 17 9 12 23 21 25 23 21 28 21 10 11 39 41 37 32 27 22 18 16 14 11 8 8 8 7 6 8 9 10 12 12 14 15 14 13 12
9 4 8 12 10 12 21 22 14 20 23 22 29 42 36 17 4 27 11 10 28 41 36 31 25 21 18 12 9 8 7 7 6 6 7 9 10 11 14 14 13 14 14 15
6 13 16 22 18 18 19 21 14 10 16 26 38 41 26 30 22 11 3 33 31 26 27 29 26 20 14 11 9 7 7 6 5 6 6 7 10 12 13 14 14 14 15 15
4 3 17 23 17 20 16 22 9 18 19 23 30 16 14 55 16 20 28 33 33 30 30 25 24 16 12 11 8 6 4 5 4 4 6 8 9 11 10 10 11 11 10 10
10 9 8 16 21 28 19 15 27 27 29 27 14 21 41 39 27 28 35 44 38 23 20 19 15 13 13 11 8 5 3 3 4 6 7 8 9 9 10 11 11 12 12 11
4 7 16 14 15 12 16 33 29 32 28 31 32 40 44 19 35 38 39 39 37 35 29 19 13 11 13 11 6 4 6 7 8 8 9 10 11 11 12 13 14 15 15 16
10 9 11 31 22 27 41 37 36 34 33 34 36 43 41 11 38 46 40 35 31 30 27 20 16 11 12 12 9 9 6 8 10 8 11 12 13 14 16 17 19 21 20 21
14 14 17 28 29 28 32 32 36 36 37 32 41 39 31 14 37 38 36 33 30 28 26 21 15 13 13 11 8 8 9 9 10 11 10 12 14 15 15 17 20 22 21 21
17 19 28 31 35 34 37 28 38 32 35 34 38 42 51 21 41 38 34 30 23 24 25 23 19 18 15 13 10 9 11 12 12 13 15 16 16 17 16 16 19 23 22 24
16 27 23 28 39 38 37 34 30 24 32 43 41 36 25 34 38 36 31 28 29 26 23 21 18 17 17 14 11 10 10 12 14 16 16 15 16 16 14 15 16 16 15 18
33 42 37 38 39 38 34 27 29 32 34 23 9 20 37 40 34 35 34 32 29 27 23 20 17 15 14 12 9 9 11 13 14 12 12 14 16 17 19 18 17 16 17 18
39 39 39 41 34 32 32 28 25 32 37 16 19 21 36 40 34 33 33 33 28 23 19 17 16 16 14 11 9 10 12 14 12 13 14 15 17 17 18 21 23 23 20 21
47 41 35 36 39 38 34 28 23 21 15 38 34 32 37 41 40 37 33 29 24 22 20 17 17 17 12 11 10 11 14 14 14 14 15 16 17 19 20 22 23 23 25 27
40 38 37 31 27 29 27 20 26 15 19 38 43 42 43 43 40 33 27 23 23 25 21 18 19 17 11 11 10 11 12 12 15 18 19 20 20 21 22 22 22 24 25 29
26 22 25 32 32 27 32 41 29 38 37 41 47 47 44 39 36 31 29 26 25 26 23 20 21 15 13 13 13 14 15 16 16 18 19 20 19 20 21 22 22 22 24 26
27 23 31 40 35 15 30 44 49 47 45 41 46 42 39 35 36 33 31 28 27 26 23 22 18 15 15 15 15 16 16 16 18 19 18 19 19 19 22 22 21 23 25 25
2 21 25 30 40 45 47 49 48 48 44 41 40 38 36 36 35 33 29 27 26 27 22 18 18 16 16 16 15 16 16 16 17 18 19 20 21 23 24 23 21 23 25 24
24 30 39 44 43 46 48 46 45 43 40 39 39 39 39 35 32 29 27 29 25 24 19 17 15 17 17 16 15 15 15 17 18 18 20 22 23 23 23 22 22 24 25 25
36 38 42 45 44 44 43 41 41 40 38 37 38 38 35 31 29 27 28 30 23 18 17 16 16 17 16 14 14 15 16 17 18 19 20 21 21 21 22 23 25 26 26 26
36 39 40 40 39 37 35 36 37 38 38 36 35 34 32 28 26 26 24 25 22 17 16 16 17 15 14 13 14 15 16 16 17 18 19 19 20 21 23 24 25 26 26 26
34 35 35 35 34 35 33 33 34 33 33 32 30 27 26 25 23 25 27 22 19 16 16 17 15 14 13 13 14 14 15 16 16 17 17 18 20 21 22 23 24 25 26 27
28 28 32 33 33 33 36 34 32 29 28 25 22 19 20 24 25 23 24 20 17 15 16 15 13 13 12 13 13 14 14 15 15 16 17 18 20 20 21 22 23 24 25 25
26 29 30 30 33 35 33 30 29 27 25 23 20 20 21 19 21 24 20 18 15 14 15 13 12 11 11 12 13 13 14 14 15 16 17 17 18 19 20 21 23 24 24 26
25 25 25 26 28 28 27 26 27 23 20 22 21 19 20 20 20 19 18 16 14 13 13 12 10 10 11 13 13 11 12 14 15 16 16 16 17 18 20 21 22 23 24 25
20 22 24 24 22 21 20 20 21 21 18 18 22 21 20 19 18 17 17 15 14 12 10 10 9 10 11 11 11 11 13 14 15 15 15 16 17 18 19 20 21 22 23 25
Wind_Direction
261 276 323 303 291 295 281 275 283 272 254 264 267 274 278 289 298 323 213 169 161 129 141 136 134 143 150 151 149 142 122 97 76 49 24 4 354 350 334 331 329 330 327 327
281 304 285 276 287 297 290 282 261 267 273 273 271 271 274 275 293 310 180 160 174 172 165 155 155 159 158 147 140 134 100 78 62 27 11 355 341 332 334 335 338 338 339 343
280 337 326 296 283 277 272 277 318 295 288 310 302 295 282 286 282 259 195 172 165 158 147 145 148 152 148 144 140 118 91 74 48 19 4 347 337 339 345 346 341 344 352 353
271 312 251 262 280 300 311 294 294 313 308 322 322 314 295 270 27 313 327 187 139 147 144 141 141 139 143 143 124 106 82 60 41 8 352 340 343 354 356 359 4 11 14 14
236 249 278 288 283 285 294 287 299 293 350 347 346 332 301 298 252 211 142 148 142 133 133 137 140 144 145 131 117 99 74 49 27 7 355 356 1 6 13 16 20 23 23 10
267 233 266 273 278 273 312 289 215 347 342 344 352 336 308 315 218 161 169 152 134 140 144 141 139 153 149 128 115 90 64 41 21 15 17 15 15 18 20 14 2 358 356 350
234 256 264 261 270 275 264 276 325 340 340 340 333 323 301 301 198 171 166 154 156 146 128 129 135 141 132 115 100 91 52 55 73 38 21 24 21 13 6 359 350 346 346 341
243 251 267 271 266 251 287 318 322 324 324 331 328 329 314 307 124 124 136 144 147 139 138 137 133 140 117 102 87 75 74 51 38 30 21 16 15 12 9 3 2 358 354 354
225 244 264 286 298 300 295 300 307 315 326 326 322 323 312 256 128 133 130 129 137 138 132 130 132 121 101 90 91 86 58 47 47 47 33 26 20 18 14 9 1 358 354 350
275 271 279 285 292 290 289 291 300 312 316 323 321 324 300 259 124 128 137 136 135 134 125 119 114 107 104 99 89 79 70 52 44 39 27 14 11 13 17 10 359 357 2 355
271 270 273 274 273 278 285 294 305 302 306 316 319 313 296 181 132 139 136 130 124 111 111 106 109 106 111 113 106 72 58 46 32 25 18 12 11 6 4 1 358 359 351 348
248 251 252 263 272 279 280 285 291 308 311 319 316 294 170 132 136 137 132 130 127 126 118 114 110 101 93 96 84 71 56 34 19 11 4 2 1 4 11 358 348 346 350 346
251 258 260 263 268 274 278 285 295 296 304 306 338 136 136 128 131 131 130 127 120 114 117 120 114 106 91 80 65 45 34 20 16 24 17 6 359 356 350 347 349 358 3 348
255 261 268 265 261 267 277 279 289 284 294 242 165 142 136 133 127 122 117 114 119 121 116 114 107 97 85 73 57 42 33 38 32 20 7 357 356 3 7 9 6 4 358 344
256 252 248 259 264 268 266 274 269 302 245 178 171 149 138 128 121 120 128 130 123 117 107 100 96 93 87 74 60 41 34 32 28 20 28 34 31 27 20 12 8 6 356 351
260 258 256 252 258 265 258 251 270 239 146 139 142 136 124 125 127 127 120 118 121 104 98 93 89 91 80 69 60 54 50 44 40 40 38 33 29 22 14 10 8 5 360 357
262 255 259 264 257 245 259 267 253 157 139 132 130 132 133 129 121 118 117 112 106 100 94 89 90 90 74 62 66 70 63 52 44 40 35 29 25 18 11 10 9 1 357 355
267 282 273 263 248 254 131 130 139 137 132 132 132 131 128 126 120 116 112 110 104 95 86 88 90 85 74 71 68 64 56 50 43 38 32 28 24 20 12 13 10 1 357 357
115 88 90 110 129 126 122 123 125 131 137 134 128 124 122 118 116 114 115 111 105 97 92 94 94 86 73 65 60 58 55 49 44 40 35 31 28 23 18 16 11 3 3 1
107 107 110 113 119 124 122 128 132 133 133 130 127 125 120 118 119 118 115 106 101 101 105 103 88 77 68 61 56 57 55 51 47 44 38 35 32 27 23 20 16 12 10 8
98 105 109 112 111 120 125 131 130 126 126 125 123 118 116 119 119 116 111 105 106 108 101 94 85 74 67 62 60 58 55 53 49 44 41 37 33 30 27 24 22 19 16 14
103 104 108 112 113 113 118 121 122 125 125 122 120 119 120 119 120 112 102 105 111 110 104 93 81 71 66 62 62 60 58 54 51 46 40 36 33 30 28 26 25 23 20 18
110 113 115 114 114 114 115 115 116 117 117 117 120 121 118 120 119 118 113 111 112 111 100 87 78 69 63 65 64 60 56 54 48 44 40 35 33 32 31 29 26 24 22 20
111 111 112 115 119 120 115 118 118 118 118 120 121 119 126 127 118 113 113 115 114 109 97 87 77 69 69 64 62 61 58 50 48 44 43 41 38 35 32 30 28 26 24 23
117 120 124 127 123 120 123 126 121 119 123 126 132 131 132 126 120 119 121 119 116 107 97 87 77 73 71 70 66 57 52 50 48 44 43 42 40 36 33 29 27 25 24 24
126 129 131 133 131 131 131 134 133 140 141 136 134 136 133 128 122 123 125 120 114 105 95 86 81 78 71 66 63 59 55 53 52 48 44 41 36 34 31 29 27 26 25 25
130 133 134 131 133 138 143 146 146 147 153 145 134 135 132 130 130 129 125 121 116 108 96 88 82 77 73 67 63 60 60 57 53 46 41 38 35 33 31 28 27 27 27 26